• In Austria
  • List of Countries
  • For 7 days
  • Water Temperature
  • Satellite Maps
  • Weather Map
  • News
  • Weather Widgets
  • user-avatar
    Login

    Hourly Weather Adelaide

    Today, 11 December, Monday

    Time Temperature Precipitation Wind Pressure Humidity
    00:00 +18°C° 0 mm 3 mps 762 mmHg 72%
    01:00 +17°C° 0 mm 3 mps 762 mmHg 74%
    02:00 +17°C° 0 mm 3 mps 762 mmHg 77%
    03:00 +16°C° 0 mm 2 mps 761 mmHg 79%
    04:00 +17°C° 0 mm 2 mps 761 mmHg 76%
    05:00 +17°C° 0 mm 2 mps 762 mmHg 74%
    06:00 +18°C° 0 mm 3 mps 762 mmHg 71%
    07:00 +20°C° 0 mm 2 mps 762 mmHg 61%
    08:00 +23°C° 0 mm 2 mps 762 mmHg 51%
    09:00 +26°C° 0 mm 2 mps 762 mmHg 41%
    10:00 +27°C° 0 mm 2 mps 762 mmHg 37%
    11:00 +29°C° 0 mm 3 mps 761 mmHg 32%
    12:00 +30°C° 0 mm 3 mps 761 mmHg 28%
    13:00 +30°C° 0 mm 4 mps 760 mmHg 28%
    14:00 +30°C° 0 mm 4 mps 760 mmHg 28%
    15:00 +32°C° 0 mm 4 mps 759 mmHg 28%
    16:00 +29°C° 0 mm 4 mps 759 mmHg 33%
    17:00 +27°C° 0 mm 4 mps 759 mmHg 38%
    18:00 +26°C° 0 mm 4 mps 759 mmHg 43%
    19:00 +23°C° 0 mm 4 mps 759 mmHg 49%
    20:00 +21°C° 0 mm 4 mps 759 mmHg 55%
    21:00 +20°C° 0 mm 4 mps 760 mmHg 61%
    22:00 +19°C° 0 mm 3 mps 759 mmHg 62%
    23:00 +19°C° 0 mm 3 mps 759 mmHg 63%

    Tomorrow, 12 December, Tuesday

    Time Temperature Precipitation Wind Pressure Humidity
    00:00 +18°C° 0 mm 3 mps 759 mmHg 64%
    01:00 +18°C° 0 mm 3 mps 758 mmHg 64%
    02:00 +18°C° 0 mm 2 mps 758 mmHg 65%
    03:00 +18°C° 0 mm 2 mps 757 mmHg 66%
    04:00 +19°C° 0 mm 2 mps 758 mmHg 62%
    05:00 +20°C° 0 mm 2 mps 758 mmHg 59%
    06:00 +21°C° 0 mm 2 mps 758 mmHg 56%
    07:00 +25°C° 0 mm 3 mps 757 mmHg 46%
    08:00 +28°C° 0 mm 3 mps 757 mmHg 36%
    09:00 +33°C° 0 mm 3 mps 757 mmHg 26%
    10:00 +34°C° 0 mm 3 mps 756 mmHg 23%
    11:00 +36°C° 0 mm 3 mps 756 mmHg 20%
    12:00 +37°C° 0 mm 3 mps 755 mmHg 17%
    13:00 +38°C° 0 mm 3 mps 755 mmHg 16%
    14:00 +38°C° 0 mm 3 mps 754 mmHg 16%
    15:00 +38°C° 0 mm 3 mps 754 mmHg 15%
    16:00 +37°C° 0 mm 3 mps 753 mmHg 16%
    17:00 +36°C° 0 mm 2 mps 753 mmHg 18%
    18:00 +35°C° 0 mm 2 mps 753 mmHg 20%
    19:00 +33°C° 0 mm 3 mps 753 mmHg 22%
    20:00 +31°C° 0 mm 3 mps 753 mmHg 23%
    21:00 +29°C° 0 mm 3 mps 753 mmHg 25%
    22:00 +29°C° 0 mm 3 mps 753 mmHg 25%
    23:00 +29°C° 0 mm 4 mps 752 mmHg 26%

    Day after tomorrow, 13 December, Wednesday

    Time Temperature Precipitation Wind Pressure Humidity
    00:00 +29°C° 0 mm 4 mps 752 mmHg 26%
    01:00 +29°C° 0 mm 4 mps 751 mmHg 25%
    02:00 +28°C° 0 mm 5 mps 751 mmHg 24%
    03:00 +28°C° 0 mm 5 mps 750 mmHg 24%
    04:00 +29°C° 0 mm 5 mps 750 mmHg 22%
    05:00 +30°C° 0 mm 5 mps 750 mmHg 21%
    06:00 +32°C° 0 mm 6 mps 750 mmHg 19%
    07:00 +34°C° 0 mm 6 mps 750 mmHg 17%
    08:00 +38°C° 0 mm 7 mps 750 mmHg 15%
    09:00 +40°C° 0 mm 8 mps 750 mmHg 13%
    10:00 +39°C° 0 mm 7 mps 750 mmHg 15%
    11:00 +38°C° 0 mm 6 mps 750 mmHg 17%
    12:00 +35°C° 0 mm 6 mps 750 mmHg 19%
    13:00 +36°C° 0 mm 6 mps 750 mmHg 19%
    14:00 +36°C° 0 mm 6 mps 749 mmHg 18%
    15:00 +38°C° 0 mm 6 mps 749 mmHg 17%
    16:00 +34°C° 0 mm 6 mps 750 mmHg 26%
    17:00 +32°C° 0 mm 6 mps 750 mmHg 35%
    18:00 +29°C° 0 mm 5 mps 750 mmHg 44%
    19:00 +27°C° 0 mm 5 mps 751 mmHg 52%
    20:00 +26°C° 0 mm 4 mps 752 mmHg 60%
    21:00 +24°C° 0 mm 3 mps 752 mmHg 68%
    22:00 +23°C° 0 mm 4 mps 752 mmHg 72%
    23:00 +22°C° 0 mm 4 mps 752 mmHg 75%

    14 December, Thursday

    Time Temperature Precipitation Wind Pressure Humidity
    00:00 +21°C° 0 mm 5 mps 752 mmHg 79%
    01:00 +20°C° 0 mm 5 mps 753 mmHg 80%
    02:00 +20°C° 0 mm 4 mps 753 mmHg 81%
    03:00 +19°C° 0 mm 4 mps 753 mmHg 82%
    04:00 +19°C° 0 mm 4 mps 753 mmHg 80%
    05:00 +19°C° 0 mm 4 mps 754 mmHg 78%
    06:00 +19°C° 0 mm 4 mps 755 mmHg 76%
    07:00 +20°C° 0 mm 4 mps 755 mmHg 68%
    08:00 +21°C° 0 mm 4 mps 755 mmHg 61%
    09:00 +22°C° 0 mm 4 mps 756 mmHg 53%
    10:00 +23°C° 0 mm 5 mps 756 mmHg 49%
    11:00 +25°C° 0 mm 5 mps 756 mmHg 45%
    12:00 +26°C° 0 mm 5 mps 755 mmHg 41%
    13:00 +26°C° 0 mm 5 mps 755 mmHg 40%
    14:00 +26°C° 0 mm 6 mps 755 mmHg 40%
    15:00 +26°C° 0 mm 6 mps 755 mmHg 40%
    16:00 +24°C° 0 mm 6 mps 755 mmHg 44%
    17:00 +22°C° 0 mm 6 mps 755 mmHg 48%
    18:00 +21°C° 0 mm 6 mps 755 mmHg 52%
    19:00 +20°C° 0 mm 5 mps 756 mmHg 57%
    20:00 +19°C° 0 mm 5 mps 756 mmHg 62%
    21:00 +18°C° 0 mm 4 mps 756 mmHg 67%
    22:00 +17°C° 0 mm 4 mps 756 mmHg 69%
    23:00 +17°C° 0 mm 3 mps 756 mmHg 71%

    15 December, Friday

    Time Temperature Precipitation Wind Pressure Humidity
    00:00 +16°C° 0 mm 3 mps 756 mmHg 73%
    01:00 +16°C° 0 mm 3 mps 756 mmHg 75%
    02:00 +16°C° 0 mm 2 mps 755 mmHg 77%
    03:00 +15°C° 0 mm 2 mps 755 mmHg 78%
    04:00 +16°C° 0 mm 2 mps 756 mmHg 75%
    05:00 +16°C° 0 mm 2 mps 756 mmHg 73%
    06:00 +18°C° 0 mm 1 mps 756 mmHg 70%
    07:00 +20°C° 0 mm 1 mps 756 mmHg 62%
    08:00 +21°C° 0 mm 1 mps 756 mmHg 53%
    09:00 +23°C° 0 mm 1 mps 756 mmHg 45%
    10:00 +24°C° 0 mm 2 mps 755 mmHg 42%
    11:00 +25°C° 0 mm 3 mps 755 mmHg 40%
    12:00 +26°C° 0 mm 4 mps 755 mmHg 37%
    13:00 +26°C° 0 mm 4 mps 754 mmHg 37%
    14:00 +26°C° 0 mm 5 mps 754 mmHg 37%
    15:00 +26°C° 0 mm 5 mps 754 mmHg 37%
    16:00 +25°C° 0 mm 5 mps 755 mmHg 43%
    17:00 +23°C° 0 mm 5 mps 755 mmHg 48%
    18:00 +21°C° 0 mm 5 mps 755 mmHg 53%
    19:00 +20°C° 0 mm 5 mps 756 mmHg 60%
    20:00 +19°C° 0 mm 4 mps 756 mmHg 66%
    21:00 +18°C° 0 mm 4 mps 757 mmHg 72%
    22:00 +18°C° 0 mm 4 mps 757 mmHg 73%
    23:00 +17°C° 0 mm 4 mps 757 mmHg 75%

    16 December, Saturday

    Time Temperature Precipitation Wind Pressure Humidity
    00:00 +17°C° 0 mm 3 mps 757 mmHg 77%
    01:00 +16°C° 0 mm 3 mps 757 mmHg 78%
    02:00 +16°C° 0 mm 3 mps 757 mmHg 79%
    03:00 +16°C° 0 mm 2 mps 757 mmHg 80%
    04:00 +16°C° 0 mm 2 mps 757 mmHg 78%
    05:00 +17°C° 0 mm 2 mps 758 mmHg 76%
    06:00 +17°C° 0 mm 2 mps 758 mmHg 73%
    07:00 +19°C° 0 mm 2 mps 759 mmHg 66%
    08:00 +21°C° 0 mm 2 mps 759 mmHg 58%
    09:00 +24°C° 0 mm 2 mps 759 mmHg 50%
    10:00 +25°C° 0 mm 3 mps 758 mmHg 46%
    11:00 +26°C° 0 mm 3 mps 758 mmHg 42%
    12:00 +27°C° 0 mm 3 mps 757 mmHg 39%
    13:00 +28°C° 0 mm 4 mps 757 mmHg 38%
    14:00 +28°C° 0 mm 4 mps 757 mmHg 38%
    15:00 +29°C° 0 mm 4 mps 756 mmHg 38%
    16:00 +27°C° 0 mm 5 mps 756 mmHg 41%
    17:00 +26°C° 0 mm 5 mps 756 mmHg 45%
    18:00 +25°C° 0 mm 5 mps 756 mmHg 49%
    19:00 +23°C° 0 mm 5 mps 756 mmHg 54%
    20:00 +21°C° 0 mm 5 mps 756 mmHg 60%
    21:00 +20°C° 0 mm 5 mps 757 mmHg 66%
    22:00 +20°C° 0 mm 5 mps 756 mmHg 66%
    23:00 +19°C° 0 mm 5 mps 756 mmHg 66%
    Show more